[[{"header":{"parameterUnit":"m.s-1","parameterCategory":1,"la1":30.2991,"la2":30.254,"lo1":-89.0895,"lo2":-89.0444,"dy":0.0017,"dx":0.0017,"nx":28,"ny":28,"refTime":"2025-11-04T03:00:00:Z","depth":0,"parameterNumber":2,"parameterNumberName":"U-component_of_WINDS"},"data":[0,0,0,0,0,0,0,0,0,0,0,0,0,0,0,0,0,0,0,0,0,0,0,0,0,0,0,0,0,0,0,0,0,0,0,0,0,0,0,0,0,0,0,0,0,0,0,0,0,0,0,0,0,0,0,0,0,0,-2.3735,-2.3736,0,-2.388,-2.3882,-2.3884,-2.3892,-2.389,-2.3889,-2.3887,-2.4037,-2.4043,-2.4048,0,0,0,0,0,0,0,0,0,0,0,0,0,-2.3464,-2.3469,-2.3734,-2.3736,-2.3738,-2.388,-2.3882,-2.3884,-2.3892,-2.389,-2.3888,-2.3886,-2.4035,-2.4042,-2.4049,0,0,0,0,0,0,0,0,0,0,0,0,0,-2.3593,-2.347,-2.3734,-2.3759,-2.3763,-2.388,-2.3882,-2.3885,-2.3893,-2.389,-2.3888,-2.3885,-2.4033,-2.4041,-2.405,-2.4151,0,0,-2.4075,-2.4079,0,0,0,0,0,0,0,0,-2.3585,-2.3603,-2.3754,-2.3758,-2.3762,-2.3865,-2.3842,-2.3974,-2.3894,-2.3844,-2.3887,-2.3884,-2.3982,-2.3995,-2.4027,-2.4158,-2.4165,-2.4076,-2.4081,-2.4084,-2.4087,0,0,0,0,0,0,0,-2.3577,-2.3596,-2.3792,-2.3756,-2.3761,-2.3764,-2.3779,-2.3867,-2.3925,-2.3848,-2.3849,-2.3866,-2.3984,-2.4019,-2.4031,-2.4167,-2.4076,-2.4083,-2.4088,-2.4091,-2.4388,-2.4391,0,0,0,0,0,0,-2.3563,-2.3589,-2.3788,-2.3797,-2.3666,-2.3771,-2.3788,-2.3835,-2.3924,-2.3935,-2.3868,-2.3866,-2.4006,-2.4021,-2.4036,-2.4161,-2.4084,-2.4092,-2.4097,-2.4385,-2.4389,-2.4392,0,0,0,0,0,0,-2.3557,-2.358,-2.3782,-2.3693,-2.3719,-2.3778,-2.3831,-2.3839,-2.3874,-2.3939,-2.395,-2.3893,-2.4005,-2.4025,-2.4122,-2.4166,-2.4096,-2.4103,-2.4382,-2.4386,-2.439,-2.441,0,0,0,0,0,0,-2.3549,-2.3578,-2.3617,-2.3694,-2.3724,-2.3865,-2.3833,-2.3844,-2.3889,-2.3887,-2.3966,-2.3977,-2.4005,-2.411,-2.4131,-2.4176,-2.411,-2.4378,-2.4384,-2.4389,-2.4406,-2.4415,-2.4422,0,0,0,0,0,-2.3539,-2.3617,-2.3619,-2.3643,-2.3774,-2.3868,-2.3885,-2.3915,-2.3892,-2.3932,-2.3974,-2.3974,-2.4158,-2.412,-2.4143,-2.4192,-2.4376,-2.4382,-2.4389,-2.4402,-2.4413,-2.4422,0,0,0,0,0,0,-2.3544,-2.3628,-2.3631,-2.3736,-2.3794,-2.3869,-2.392,-2.3925,-2.3992,-2.3988,-2.4023,-2.4041,-2.4137,-2.4175,-2.4131,-2.4295,-2.4264,-2.4276,-2.4267,-2.4278,-2.4285,-2.4274,-2.4117,0,0,0,0,0,-2.3557,-2.3626,-2.3696,-2.3782,-2.3811,-2.386,-2.3903,-2.3921,-2.3983,-2.4008,-2.4057,-2.4118,-2.4189,-2.4236,-2.4305,-2.4412,-2.4429,-2.4457,-2.4465,-2.4471,-2.4481,-2.4539,-2.4552,-2.4413,-2.4413,-2.4413,0,0,-2.3585,-2.364,-2.3681,-2.3784,-2.3832,-2.3903,-2.3881,-2.3957,-2.401,-2.402,-2.4115,-2.4153,-2.4223,-2.4326,-2.4373,-2.436,-2.4523,-2.448,-2.4484,-2.449,-2.4547,-2.456,-2.4572,-2.4418,-2.4417,-2.4416,0,0,-2.3673,-2.3721,-2.3797,-2.3846,-2.3918,-2.395,-2.3969,-2.4043,-2.4068,-2.4164,-2.4173,-2.4237,-2.4359,-2.4409,-2.445,-2.4556,-2.4559,-2.4578,-2.462,-2.4677,-2.4688,-2.4698,-2.4735,-2.4748,-2.4587,-2.4587,-2.4587,0,-2.3698,-2.3805,-2.3836,-2.3912,-2.3957,-2.3969,-2.4047,-2.4092,-2.4184,-2.4214,-2.4198,-2.4352,-2.44,-2.4514,-2.454,-2.4573,-2.4595,-2.4568,-2.4684,-2.4694,-2.4704,-2.4739,-2.4753,-2.4589,-2.4589,-2.4589,-2.4588,0,-2.3833,-2.3907,-2.396,-2.4048,-2.4099,-2.4175,-2.4218,-2.4266,-2.428,-2.4314,-2.4412,-2.447,-2.4551,-2.458,-2.4595,-2.4697,-2.4686,-2.4676,-2.4646,-2.4718,-2.4752,-2.4766,-2.4591,-2.4591,-2.459,-2.459,0,0,-2.3926,-2.403,-2.4049,-2.4089,-2.417,-2.4228,-2.4305,-2.4384,-2.4424,-2.4487,-2.4553,-2.4656,-2.4648,-2.4695,-2.4715,-2.4765,-2.4845,-2.475,-2.4752,-2.4764,-2.496,-2.4965,-2.4981,-2.4848,-2.485,-2.4853,-2.4953,0,-2.4022,-2.4158,-2.4189,-2.4307,-2.4375,-2.4388,-2.4455,-2.4512,-2.4546,-2.461,-2.4648,-2.472,-2.4704,-2.4732,-2.4782,-2.4824,-2.4884,-2.4818,-2.4908,-2.4911,-2.4889,-2.4999,-2.5005,-2.5098,-2.4967,-2.4969,-2.4971,0,-2.4151,-2.4216,-2.4341,-2.4412,-2.4442,-2.4502,-2.4577,-2.4637,-2.4702,-2.4724,-2.4776,-2.4792,-2.4872,-2.4839,-2.4951,-2.4905,-2.4944,-2.497,-2.4975,-2.4983,-2.4945,-2.5009,-2.5128,-2.5141,-2.4993,-2.4991,-2.4989,0,-2.4205,-2.4325,-2.4415,-2.4448,-2.4534,-2.4576,-2.4614,-2.4676,-2.4722,-2.4788,-2.4818,-2.4892,-2.4933,-2.499,-2.5025,-2.4998,-2.5134,-2.5104,-2.5154,-2.5153,-2.5181,-2.5179,-2.5306,-2.5208,-2.5208,-2.5208,-2.5207,0,-2.4308,-2.4384,-2.444,-2.4495,-2.458,-2.4615,-2.4698,-2.4736,-2.4791,-2.4854,-2.487,-2.4929,-2.4972,-2.5037,-2.5066,-2.5153,-2.5172,-2.5191,-2.5198,-2.5189,-2.5187,-2.5215,-2.5209,-2.5211,-2.5211,-2.521,-2.5209,0,-2.4383,-2.4424,-2.4522,-2.4596,-2.4616,-2.4675,-2.4738,-2.4792,-2.4827,-2.4906,-2.4927,-2.4981,-2.5058,-2.5099,-2.5196,-2.5215,-2.5313,-2.5317,-2.5291,-2.5294,-2.5341,-2.5335,-2.549,-2.5512,-2.54,-2.5401,-2.5402,0,-2.4445,-2.4504,-2.4583,-2.4626,-2.4664,-2.4734,-2.478,-2.4816,-2.4864,-2.4943,-2.4987,-2.5065,-2.5129,-2.5252,-2.53,-2.5375,-2.5379,-2.5428,-2.539,-2.538,-2.5379,-2.5374,-2.538,-2.5434,-2.5436,-2.5436,-2.5437,0,-2.4551,-2.4569,-2.4635,-2.4708,-2.4763,-2.4822,-2.4881,-2.4916,-2.4962,-2.5015,-2.5093,-2.5143,-2.5242,-2.5319,-2.5397,-2.5436,-2.5444,-2.5449,-2.5464,-2.5456,-2.5438,-2.5447,-2.5308,-2.5445,-2.5444,-2.5443,-2.5443,-2.5443,-2.4622,-2.4674,-2.4737,-2.481,-2.4858,-2.4913,-2.4967,-2.5008,-2.5074,-2.5157,-2.5175,-2.5258,-2.5322,-2.5427,-2.5469,-2.5534,-2.5525,-2.5547,-2.5552,-2.5557,-2.5559,-2.5428,-2.5549,-2.5549,-2.5549,-2.5548,-2.5548,0,-2.4728,-2.4769,-2.4836,-2.4917,-2.4975,-2.4978,-2.5043,-2.5091,-2.5163,-2.5222,-2.5285,-2.5375,-2.545,-2.5504,-2.5581,-2.5623,-2.5629,-2.5642,-2.5639,-2.5647,-2.5564,-2.5542,-2.5636,-2.5636,-2.5636,-2.5636,-2.5636,-2.5636,-2.479,-2.4877,-2.4902,-2.5014,-2.5056,-2.5137,-2.5174,-2.5224,-2.5271,-2.5371,-2.5433,-2.5468,-2.5525,-2.5605,-2.5674,-2.5688,-2.5715,-2.5728,-2.5742,-2.5663,-2.5653,-2.5644,-2.5624,-2.5734,-2.5734,-2.5821,-2.5821,-2.5822]},{"header":{"parameterUnit":"m.s-1","parameterCategory":1,"la1":30.2991,"la2":30.254,"lo1":-89.0895,"lo2":-89.0444,"dy":0.0017,"dx":0.0017,"nx":28,"ny":28,"refTime":"2025-11-04T03:00:00:Z","depth":0,"parameterNumber":3,"parameterNumberName":"V-component_of_WINDS"},"data":[0,0,0,0,0,0,0,0,0,0,0,0,0,0,0,0,0,0,0,0,0,0,0,0,0,0,0,0,0,0,0,0,0,0,0,0,0,0,0,0,0,0,0,0,0,0,0,0,0,0,0,0,0,0,0,0,0,0,3.1755,3.1755,0,3.1778,3.1779,3.1779,3.171,3.1708,3.1706,3.1704,3.1725,3.1727,3.173,0,0,0,0,0,0,0,0,0,0,0,0,0,3.1648,3.1651,3.1755,3.1755,3.1756,3.1778,3.1779,3.1779,3.171,3.1708,3.1705,3.1703,3.1724,3.1727,3.173,0,0,0,0,0,0,0,0,0,0,0,0,0,3.1686,3.1652,3.1755,3.1724,3.1722,3.1778,3.1779,3.1779,3.1711,3.1708,3.1705,3.1702,3.1723,3.1727,3.1731,3.1817,0,0,3.1742,3.1744,0,0,0,0,0,0,0,0,3.1684,3.169,3.1729,3.1727,3.1724,3.1738,3.1749,3.1792,3.1712,3.1715,3.1704,3.17,3.1732,3.1735,3.1746,3.1818,3.1819,3.1742,3.1745,3.1746,3.1747,0,0,0,0,0,0,0,3.1681,3.1688,3.1764,3.1729,3.1726,3.1708,3.171,3.1757,3.1741,3.1714,3.1709,3.1713,3.173,3.1742,3.1746,3.1819,3.1742,3.1746,3.1748,3.175,3.1963,3.1966,0,0,0,0,0,0,3.1683,3.1686,3.1763,3.1765,3.1696,3.1713,3.1715,3.1737,3.174,3.1738,3.1716,3.171,3.1737,3.1741,3.1746,3.1847,3.1746,3.175,3.1752,3.196,3.1964,3.1967,0,0,0,0,0,0,3.1681,3.169,3.1763,3.1724,3.1732,3.1718,3.1743,3.1739,3.1751,3.1741,3.1738,3.1732,3.1735,3.1741,3.18,3.1847,3.1752,3.1755,3.1956,3.1961,3.1965,3.205,0,0,0,0,0,0,3.1678,3.169,3.1724,3.1726,3.1735,3.1817,3.1746,3.1742,3.1758,3.1751,3.1755,3.1753,3.1733,3.1795,3.1804,3.185,3.1758,3.1951,3.1958,3.1964,3.2042,3.2057,3.2069,0,0,0,0,0,3.1675,3.1746,3.1726,3.1735,3.1776,3.182,3.1825,3.1801,3.1762,3.1795,3.1789,3.1753,3.1841,3.1801,3.1811,3.1859,3.1948,3.1956,3.1963,3.2036,3.2054,3.2069,0,0,0,0,0,0,3.1748,3.1746,3.1723,3.1797,3.181,3.1808,3.1849,3.1821,3.1843,3.1835,3.1804,3.1806,3.187,3.1871,3.1827,3.1943,3.1888,3.1897,3.194,3.1956,3.1969,3.1967,3.1761,0,0,0,0,0,3.1774,3.181,3.1805,3.1871,3.1879,3.1863,3.1881,3.1862,3.1873,3.1877,3.1875,3.1886,3.1916,3.1937,3.1964,3.2043,3.2042,3.2081,3.2094,3.2105,3.2113,3.2154,3.2171,3.1992,3.1992,3.1992,0,0,3.1826,3.1829,3.1853,3.1886,3.1893,3.1931,3.1868,3.191,3.1937,3.1883,3.1939,3.1938,3.1948,3.2018,3.2048,3.202,3.2163,3.2115,3.2124,3.2126,3.2164,3.2181,3.2196,3.1998,3.1997,3.1996,0,0,3.1939,3.1946,3.2001,3.201,3.2021,3.2011,3.2024,3.2027,3.2025,3.208,3.204,3.2072,3.2125,3.2133,3.2145,3.2262,3.2229,3.2272,3.2341,3.2381,3.2395,3.2407,3.2448,3.2463,3.2281,3.2281,3.2281,0,3.2001,3.2057,3.2032,3.2078,3.2093,3.2047,3.2102,3.2112,3.2132,3.2143,3.2112,3.2176,3.218,3.225,3.2279,3.229,3.2304,3.227,3.2395,3.2407,3.2418,3.2457,3.2472,3.2286,3.2285,3.2285,3.2284,0,3.2133,3.2172,3.2215,3.2237,3.2257,3.2307,3.2289,3.2312,3.2292,3.2284,3.2341,3.2344,3.237,3.2386,3.2366,3.2454,3.2436,3.2401,3.2344,3.2441,3.2476,3.2491,3.2293,3.2291,3.229,3.2289,0,0,3.2292,3.23,3.2316,3.2325,3.2335,3.2364,3.2412,3.2439,3.2459,3.2474,3.2512,3.2558,3.2526,3.2539,3.252,3.2556,3.2647,3.2516,3.2516,3.2539,3.2742,3.2767,3.2785,3.2626,3.2629,3.2631,3.2741,0,3.2403,3.2485,3.2464,3.2546,3.2581,3.2539,3.258,3.259,3.2585,3.2613,3.2606,3.2639,3.2594,3.2602,3.2635,3.2629,3.2687,3.2621,3.266,3.2662,3.2657,3.2803,3.283,3.2933,3.2754,3.2757,3.2759,0,3.2543,3.2564,3.265,3.2653,3.2667,3.2705,3.2728,3.2756,3.2766,3.276,3.2775,3.2749,3.2795,3.274,3.2802,3.2757,3.2772,3.2772,3.2775,3.2777,3.2715,3.2807,3.2966,3.2981,3.278,3.2779,3.2777,0,3.2649,3.2699,3.2756,3.2765,3.2772,3.2799,3.2803,3.281,3.2828,3.2847,3.2858,3.2883,3.2896,3.2916,3.2897,3.2859,3.2962,3.2905,3.2956,3.2957,3.2979,3.2977,3.314,3.2991,3.2991,3.2991,3.299,0,3.2773,3.2827,3.2804,3.2839,3.2897,3.2873,3.2931,3.293,3.2937,3.297,3.2935,3.2967,3.2941,3.297,3.2956,3.3009,3.3015,3.301,3.3005,3.3013,3.3013,3.3021,3.3013,3.2995,3.2994,3.2993,3.2992,0,3.2901,3.2888,3.2947,3.2949,3.295,3.2993,3.2994,3.3026,3.3018,3.3061,3.3069,3.3057,3.3089,3.3073,3.3107,3.3097,3.3166,3.3152,3.3162,3.3158,3.3209,3.3204,3.3382,3.3404,3.3242,3.3244,3.3245,0,3.298,3.3021,3.3027,3.3047,3.3053,3.3087,3.3104,3.3082,3.3101,3.3117,3.3147,3.3177,3.3199,3.3254,3.3247,3.3273,3.3258,3.3319,3.3262,3.3267,3.3257,3.3255,3.3258,3.333,3.3332,3.3333,3.3334,0,3.3123,3.3115,3.3142,3.3167,3.319,3.3208,3.3224,3.3242,3.322,3.3244,3.3278,3.3295,3.333,3.336,3.3382,3.3385,3.3356,3.3353,3.3366,3.3372,3.3376,3.3374,3.3192,3.3348,3.3347,3.3346,3.3345,3.3345,3.3228,3.3261,3.3271,3.3302,3.3312,3.3327,3.3357,3.3354,3.3381,3.3408,3.3393,3.3432,3.3441,3.3469,3.3475,3.3505,3.3481,3.35,3.3504,3.3509,3.3515,3.3373,3.3509,3.3509,3.3508,3.3508,3.3508,0,3.3367,3.3371,3.3401,3.3424,3.3449,3.342,3.3436,3.3458,3.3493,3.3505,3.3528,3.3566,3.3595,3.3591,3.3617,3.3642,3.3629,3.3649,3.3646,3.3647,3.3536,3.3522,3.3659,3.3659,3.3659,3.3659,3.3659,3.3659,3.3442,3.3497,3.349,3.3549,3.3552,3.3591,3.3602,3.3616,3.3625,3.3669,3.3693,3.3691,3.3696,3.3722,3.3747,3.3745,3.3756,3.3781,3.3774,3.367,3.3655,3.3641,3.3627,3.3784,3.3784,3.3882,3.3883,3.3884]}]]